Home > Weather > Curitiba > Past weeks

Flag for Brazil Past Weather in Curitiba, Paraná, Brazil — Yesterday and Last 2 Weeks

Now
45 °F

Passing clouds.


Feels Like: 45 °F
Forecast: 44 / 67 °F
Wind: 2 mph from Southeast

Location: Curitiba Aeroporto

Current Time: Aug 24, 2016 at 3:37:07 AM

Latest Report: Aug 24, 2016 at 3:00 AM


Visibility: N/A

Pressure: 30.27 "Hg (27.07 "Hg at 915m altitude)

Humidity: 100%

Dew Point: 45 °F

Location of CuritibaLocation

Past Weather in Curitiba — Graph

°F

Curitiba Temperature Yesterday

Maximum temperature yesterday: 63 °F (at 3:00 PM)
Minimum temperature yesterday: 37 °F (at 7:00 AM)
Average temperature yesterday: 49 °F

High & Low Weather Summary for the Past Weeks

 TemperatureHumidityPressure
High79 °F (Aug 13, 3:00 PM)100% (Aug 9, 2:00 AM)30.36 "Hg (Aug 9, 2:00 AM)
Low34 °F (Aug 22, 6:00 AM)17% (Aug 13, 3:00 PM)29.89 "Hg (Aug 15, 5:00 PM)
Average54 °F83%30.13 "Hg
* Reported Aug 9 2:00 AM — Aug 24 2:00 AM, Curitiba, Weather by CustomWeather, © 2016

Note: Actual official high and low records may vary slightly from our data, if they occured in-between our weather recording intervals... More about our weather records

Advertising

Curitiba Weather History for the Previous 24 Hours

Scroll right to see more
 ConditionsComfort  
Time TempWeatherWind HumidityBarometerVisibility
2:00 AM
Wed, Aug 24
45 °FPassing clouds.2 mph100%30.27 "Hg5 mi
1:00 AM45 °FPassing clouds.3 mph100%30.30 "HgN/A
12:00 AM46 °FPassing clouds.3 mph93%30.30 "HgN/A
11:00 PM
Tue, Aug 23
45 °FPassing clouds.7 mph100%30.30 "HgN/A
10:00 PM46 °FPassing clouds.3 mph93%30.30 "HgN/A
9:00 PM46 °FClear.5 mph93%30.30 "Hg10 mi
8:00 PM48 °FClear.6 mph87%30.30 "Hg10 mi
7:00 PM50 °FClear.6 mph88%30.27 "Hg10 mi
6:00 PM54 °FClear.9 mph72%30.27 "Hg10 mi
5:00 PM59 °FSunny.8 mph55%30.27 "Hg10 mi
4:00 PM61 °FSunny.8 mph45%30.24 "Hg10 mi
3:00 PM63 °FSunny.8 mph34%30.27 "Hg10 mi
2:00 PM61 °FSunny.9 mph39%30.27 "Hg10 mi
1:00 PM61 °FSunny.13 mph36%30.30 "Hg10 mi
12:00 PM61 °FSunny.12 mph45%30.30 "Hg10 mi
11:00 AM57 °FSunny.8 mph63%30.30 "Hg10 mi
10:00 AM52 °FSunny.5 mph88%30.30 "Hg10 mi
9:00 AM46 °FFog.No wind93%30.30 "Hg2 mi
8:00 AM39 °FFog.1 mph100%N/A1 mi
7:00 AM37 °FFog.3 mph100%N/A0 mi
6:00 AM39 °FFog.3 mph100%N/A0 mi
5:00 AM39 °FFog.No wind100%N/A0 mi
4:00 AM39 °FFog.3 mph100%N/A0 mi
3:00 AM41 °FFog.2 mph100%N/A0 mi
Weather by CustomWeather, © 2016

See weather overviewHow to use our weather pages